Wind_Speed
10 10 10 10 10 10 11 11 12 12 12 11 10 10 11 11 11 11 12 12 13 13 13 13 13 14 14 14 14 14 14 15 16 16 16 16 16 16 16 16 17 17 17 17
10 11 11 11 11 11 12 12 13 12 12 12 11 10 11 11 11 12 13 13 14 14 13 14 14 14 14 15 15 15 15 15 16 17 17 17 17 17 17 17 16 17 17 16
12 11 11 11 11 12 12 13 13 12 12 12 12 11 11 12 12 13 13 14 14 14 14 14 15 15 15 16 16 16 16 16 16 17 17 17 17 17 17 17 17 17 17 17
12 12 12 12 12 12 12 13 13 12 12 12 12 13 12 13 13 13 14 14 14 15 15 16 16 16 16 16 17 17 17 17 17 18 18 18 18 18 18 18 18 18 18 18
13 13 13 13 13 13 12 12 12 12 12 12 11 13 13 13 15 14 15 15 15 15 16 16 17 17 17 17 17 17 18 18 18 18 18 19 19 19 19 19 19 19 19 18
12 13 13 13 13 13 12 12 11 11 11 12 12 14 14 12 16 16 16 17 17 17 17 18 17 17 18 18 18 18 18 18 18 18 19 20 20 20 20 19 19 20 20 19
13 13 13 13 13 13 12 11 10 10 10 12 13 15 15 14 17 18 18 18 18 18 19 18 18 18 18 18 19 19 19 18 19 19 20 20 20 20 20 20 20 20 21 20
13 14 13 13 13 13 13 12 11 11 11 13 14 16 16 16 18 18 19 19 19 19 19 18 18 18 19 19 19 20 19 19 19 20 20 21 20 20 20 20 20 20 20 20
14 14 14 14 14 13 13 13 12 13 13 14 14 17 17 17 18 19 20 20 19 19 19 19 19 19 19 19 20 20 20 21 21 21 21 21 20 20 20 20 20 21 21 21
15 16 15 14 15 14 14 13 14 14 14 14 15 17 19 19 20 20 20 20 20 20 20 19 19 20 20 20 21 21 21 21 21 21 21 21 20 20 20 21 21 21 22 22
16 17 16 16 15 15 15 15 15 16 16 16 16 19 19 21 20 21 21 21 21 21 20 20 20 20 21 21 21 21 21 21 21 21 21 21 21 22 22 21 21 22 23 23
17 17 17 17 16 16 16 16 17 18 18 18 19 21 20 22 22 22 22 22 21 21 21 21 21 21 21 22 22 22 22 22 22 22 22 22 22 23 23 23 22 22 23 23
19 18 18 17 17 17 17 17 18 19 19 19 19 22 22 22 22 22 23 23 22 22 22 22 22 23 23 23 23 23 23 23 23 23 22 23 23 23 23 23 23 23 23 23
20 19 18 18 17 17 18 19 19 20 20 21 20 22 23 23 24 24 24 24 24 23 23 23 23 23 24 24 24 24 24 24 24 24 24 23 23 23 24 24 24 24 24 24
21 20 20 19 20 20 20 20 21 21 21 22 22 23 23 24 25 24 25 25 25 24 24 24 24 24 24 25 25 25 25 25 25 25 25 25 25 25 25 25 24 25 25 25
22 22 22 21 21 22 22 22 22 22 22 22 23 24 24 24 25 25 26 25 25 25 25 25 25 26 26 26 26 26 26 26 26 26 26 26 25 25 25 25 25 25 25 25
23 23 23 23 22 23 22 22 22 23 23 24 24 25 25 25 25 25 25 26 26 26 26 26 27 28 28 28 27 27 28 28 27 27 27 27 27 26 26 26 26 26 26 26
24 24 23 23 23 23 22 22 23 23 23 24 25 25 26 27 27 26 26 27 28 28 27 28 28 28 28 28 28 29 29 29 28 28 28 28 28 28 28 28 28 28 27 27
24 24 24 24 24 24 23 23 24 24 24 24 24 24 25 26 26 27 27 27 28 29 29 29 29 29 29 29 30 30 30 29 29 29 29 29 29 29 29 29 29 29 28 28
24 24 25 25 25 25 24 23 24 24 24 23 24 24 25 26 26 27 28 28 28 29 29 30 30 30 30 30 31 31 30 31 30 30 30 30 30 30 30 30 30 30 30 29
24 24 25 26 26 27 26 25 25 25 25 25 25 26 27 27 27 28 28 28 29 30 30 30 31 31 31 31 31 31 31 31 32 31 31 31 31 31 32 32 32 32 31 31
24 25 25 25 26 27 26 27 26 26 26 27 27 27 28 28 28 29 29 30 31 31 31 31 32 32 32 32 32 32 32 32 32 32 33 32 33 33 33 33 32 32 32 32
24 25 25 26 26 26 25 27 28 28 28 28 27 27 28 29 29 30 31 31 31 31 32 32 32 32 33 32 32 32 33 33 33 33 33 33 33 34 34 34 33 32 32 32
25 25 26 26 27 27 27 27 28 28 28 29 29 28 28 29 30 30 30 31 31 32 32 32 33 33 33 33 33 33 34 34 34 34 34 34 34 34 34 35 34 33 33 33
27 26 26 27 28 29 29 29 29 29 29 29 30 30 30 30 30 30 31 31 32 32 33 33 33 33 33 33 33 33 34 34 34 34 33 33 34 34 34 34 34 34 34 34
28 28 28 28 28 28 29 30 30 30 30 31 31 31 31 31 30 30 30 31 31 32 32 32 33 33 33 33 33 33 34 34 33 33 33 32 32 33 33 33 33 33 33 34
Wind_Direction
249 251 254 257 253 257 261 263 270 271 275 276 279 283 288 290 292 293 289 290 293 295 296 295 295 296 296 297 298 298 297 298 299 300 300 300 298 300 301 304 304 304 302 300
251 252 253 253 255 258 260 265 268 267 273 275 278 282 287 289 292 294 294 293 294 294 295 295 295 294 295 297 297 297 297 298 299 299 299 298 298 299 302 303 305 303 302 300
251 253 255 256 258 261 262 265 266 264 270 276 278 276 282 289 289 291 293 294 294 296 296 296 295 295 296 297 297 296 296 298 299 299 299 298 297 298 299 301 302 302 301 300
250 251 255 257 259 261 261 263 264 267 269 273 277 279 282 289 289 289 292 293 295 295 295 296 296 296 297 298 298 297 296 297 299 299 300 299 296 296 298 300 300 300 300 299
254 255 256 258 259 259 262 263 264 265 268 272 276 276 282 284 289 292 294 295 295 295 296 296 297 298 298 299 300 300 298 296 297 298 299 299 299 298 299 298 299 299 300 298
258 258 258 260 258 258 260 257 258 262 267 268 273 275 278 283 288 292 294 296 296 295 296 296 296 297 298 299 299 299 298 297 296 296 297 299 300 300 300 299 298 298 298 299
261 260 257 257 258 257 254 252 254 259 265 274 277 275 277 278 284 290 294 295 295 295 296 295 295 295 297 297 298 299 299 296 294 295 296 297 299 301 300 298 298 298 297 296
260 262 263 260 256 256 255 253 252 256 258 266 274 275 282 286 287 289 291 293 294 294 295 296 295 296 296 297 298 298 298 296 294 294 295 295 297 298 299 298 298 298 297 297
256 261 264 263 259 256 256 256 256 257 256 256 266 278 283 285 288 290 292 293 294 294 295 296 298 298 298 297 297 297 296 295 294 294 295 295 296 296 297 298 297 296 296 297
254 257 261 264 262 257 257 258 257 259 262 262 265 272 280 284 287 290 294 294 294 294 295 297 297 298 297 296 296 295 295 295 295 295 295 295 295 295 295 296 296 296 296 294
253 256 259 261 263 263 262 260 259 262 265 266 266 268 279 284 289 292 292 292 293 294 293 294 296 297 296 295 296 296 296 295 295 295 295 294 294 294 295 295 297 297 298 297
252 255 257 258 262 264 266 264 261 262 265 268 270 274 278 284 289 291 293 293 293 293 293 293 294 295 295 294 295 296 295 295 295 294 294 293 292 293 294 295 296 297 298 297
253 254 255 257 260 263 266 266 266 266 267 268 269 276 281 283 287 289 290 291 292 292 292 293 293 294 294 293 294 294 294 294 294 295 294 292 292 293 294 294 295 297 298 297
253 253 253 257 259 263 266 268 268 266 267 268 269 273 280 283 285 288 289 290 291 292 293 293 293 294 294 293 293 293 292 292 292 292 292 292 292 292 293 294 295 296 296 296
252 253 254 255 258 260 263 265 268 270 270 269 270 272 276 280 283 286 286 287 290 291 293 293 293 294 294 293 292 292 291 290 290 290 290 291 291 291 292 293 294 295 296 297
253 252 254 256 260 263 263 265 267 269 271 270 271 272 274 277 280 284 284 284 287 290 291 292 292 292 293 293 292 291 290 289 290 289 289 290 291 291 291 291 292 294 295 296
256 256 257 259 261 264 265 267 269 271 272 273 274 273 272 274 277 281 285 286 287 287 288 290 290 291 292 292 292 291 290 289 289 289 289 289 289 289 290 290 291 292 293 294
256 258 260 262 262 264 269 270 272 274 275 275 276 275 275 276 278 281 283 285 286 286 288 289 290 290 291 291 291 291 290 290 289 289 288 288 288 288 288 289 290 291 292 291
257 258 260 263 265 268 271 273 275 276 276 276 278 278 279 280 282 283 283 285 287 289 290 290 290 291 291 291 291 291 290 289 289 289 288 288 287 286 286 288 289 290 291 291
257 258 261 264 267 269 272 274 275 276 276 276 279 280 281 281 282 283 284 286 288 289 291 292 291 291 291 290 290 289 289 289 289 288 288 288 287 286 286 287 288 288 290 291
258 258 261 263 266 269 272 273 274 273 277 278 279 281 282 283 283 284 285 286 287 289 289 290 291 290 291 291 291 290 289 289 288 287 288 287 287 286 286 286 287 288 288 289
261 260 261 264 266 269 271 272 275 276 278 280 281 281 283 283 284 285 286 286 288 289 290 290 290 290 291 291 291 290 290 289 288 288 288 287 287 286 285 285 286 287 287 288
262 262 263 263 267 270 271 273 275 277 277 278 279 280 281 282 284 285 287 287 288 289 290 291 290 289 290 290 290 290 290 289 289 288 288 287 286 286 286 286 286 287 287 288
263 264 264 265 266 268 269 272 273 277 277 276 277 279 280 282 284 285 286 287 288 289 290 291 291 290 290 290 290 290 289 289 289 289 288 287 287 287 287 287 287 287 288 287
262 264 265 266 268 269 269 271 273 275 277 278 278 279 280 282 285 287 287 287 289 289 290 291 291 291 290 290 290 290 290 290 290 289 289 288 288 288 288 287 287 287 287 287
262 265 267 268 270 270 269 270 272 275 277 278 278 278 280 282 285 287 289 290 290 291 292 293 293 292 292 291 291 291 291 292 291 291 290 289 289 289 289 287 286 286 287 287
Height
5854 5856 5856 5857 5858 5859 5859 5859 5860 5860 5860 5860 5860 5860 5860 5860 5860 5860 5859 5859 5858 5858 5857 5856 5856 5855 5854 5854 5853 5852 5852 5851 5850 5849 5848 5847 5846 5845 5844 5842 5841 5839 5838 5837
5853 5853 5854 5854 5855 5856 5856 5857 5857 5858 5858 5858 5858 5858 5858 5858 5858 5857 5857 5856 5856 5855 5854 5854 5853 5852 5852 5851 5850 5849 5848 5848 5847 5846 5845 5844 5843 5842 5841 5839 5837 5836 5835 5833
5850 5852 5852 5852 5853 5854 5854 5855 5855 5855 5855 5855 5856 5856 5856 5856 5856 5855 5855 5854 5853 5852 5852 5851 5850 5850 5849 5848 5847 5846 5845 5844 5843 5842 5842 5841 5839 5838 5837 5836 5834 5832 5831 5829
5847 5848 5849 5850 5850 5851 5852 5852 5852 5853 5853 5853 5854 5853 5854 5853 5853 5853 5852 5852 5851 5850 5849 5848 5847 5846 5845 5845 5843 5842 5841 5840 5839 5839 5838 5837 5835 5834 5833 5831 5830 5829 5827 5826
5845 5845 5846 5847 5848 5848 5849 5849 5850 5850 5850 5851 5851 5851 5852 5851 5850 5850 5850 5849 5848 5847 5846 5845 5844 5843 5842 5841 5840 5839 5837 5836 5836 5835 5833 5832 5831 5830 5828 5827 5826 5824 5823 5822
5842 5843 5843 5844 5845 5846 5846 5847 5847 5847 5848 5848 5849 5849 5849 5849 5847 5847 5847 5846 5845 5844 5843 5842 5841 5840 5838 5837 5836 5835 5834 5833 5832 5830 5829 5828 5827 5825 5824 5822 5821 5820 5819 5817
5839 5840 5840 5841 5842 5843 5844 5844 5845 5845 5845 5846 5847 5846 5846 5846 5845 5844 5844 5843 5842 5841 5839 5838 5837 5836 5835 5834 5832 5831 5830 5829 5827 5826 5825 5823 5822 5821 5819 5818 5816 5815 5814 5813
5836 5838 5838 5838 5840 5840 5841 5841 5843 5843 5844 5844 5844 5843 5843 5843 5842 5841 5840 5839 5838 5837 5836 5834 5833 5832 5831 5830 5828 5827 5826 5824 5823 5822 5820 5819 5817 5816 5815 5813 5812 5810 5809 5808
5833 5835 5835 5835 5836 5837 5838 5838 5839 5840 5840 5841 5841 5840 5840 5839 5838 5838 5836 5835 5834 5833 5832 5830 5829 5828 5827 5825 5824 5823 5821 5820 5818 5817 5815 5814 5813 5811 5810 5808 5807 5805 5804 5803
5830 5831 5832 5832 5833 5834 5835 5836 5836 5836 5836 5837 5838 5838 5836 5836 5835 5834 5833 5831 5830 5829 5828 5826 5825 5824 5822 5821 5819 5818 5816 5815 5813 5812 5810 5809 5808 5806 5805 5803 5802 5800 5799 5797
5827 5828 5829 5829 5830 5831 5832 5832 5832 5833 5833 5833 5834 5835 5833 5832 5831 5830 5828 5827 5826 5825 5823 5822 5821 5819 5817 5816 5814 5813 5811 5810 5808 5806 5805 5804 5802 5801 5800 5798 5797 5795 5794 5792
5823 5824 5824 5825 5826 5827 5828 5828 5829 5829 5829 5829 5829 5831 5829 5827 5826 5825 5824 5822 5821 5820 5818 5817 5816 5814 5813 5811 5809 5808 5806 5804 5803 5801 5800 5798 5797 5796 5794 5793 5791 5790 5788 5787
5819 5820 5821 5822 5824 5824 5823 5824 5824 5824 5824 5824 5824 5826 5823 5823 5821 5820 5819 5817 5816 5815 5814 5812 5811 5809 5808 5806 5804 5803 5801 5799 5797 5796 5794 5793 5791 5790 5788 5787 5785 5784 5782 5781
5814 5815 5817 5818 5818 5818 5818 5819 5819 5819 5819 5819 5820 5820 5818 5817 5816 5814 5813 5812 5810 5810 5809 5807 5805 5804 5802 5800 5799 5797 5795 5793 5792 5790 5788 5787 5785 5784 5782 5781 5779 5778 5776 5775
5809 5810 5811 5812 5813 5813 5814 5814 5814 5814 5814 5814 5814 5813 5812 5811 5810 5809 5808 5806 5805 5804 5803 5801 5800 5798 5796 5794 5793 5791 5789 5787 5785 5784 5782 5780 5779 5777 5776 5775 5773 5772 5770 5768
5803 5805 5806 5807 5807 5807 5808 5809 5809 5809 5809 5808 5808 5808 5806 5805 5805 5803 5802 5800 5799 5798 5797 5795 5794 5792 5790 5788 5786 5784 5782 5780 5778 5777 5775 5774 5772 5771 5769 5768 5766 5765 5763 5762
5798 5799 5800 5801 5801 5801 5802 5803 5803 5803 5803 5802 5802 5802 5800 5799 5798 5797 5796 5794 5793 5792 5790 5789 5787 5785 5783 5781 5779 5777 5775 5773 5771 5770 5768 5766 5765 5763 5762 5761 5759 5758 5756 5755
5792 5793 5794 5795 5796 5796 5799 5797 5797 5797 5796 5796 5794 5794 5793 5792 5792 5791 5790 5788 5786 5785 5783 5782 5780 5778 5776 5774 5771 5769 5767 5765 5764 5762 5760 5759 5757 5756 5754 5753 5752 5751 5749 5747
5786 5787 5788 5789 5789 5790 5792 5791 5790 5790 5790 5789 5788 5787 5787 5786 5785 5784 5782 5781 5779 5778 5776 5774 5772 5770 5768 5766 5764 5762 5759 5757 5756 5754 5752 5751 5749 5748 5746 5745 5744 5742 5741 5739
5780 5781 5783 5782 5783 5783 5786 5785 5783 5784 5783 5783 5782 5781 5780 5779 5778 5777 5775 5773 5772 5770 5768 5767 5764 5762 5760 5758 5756 5754 5751 5749 5748 5746 5744 5743 5741 5740 5738 5737 5735 5734 5732 5731
5774 5775 5776 5776 5776 5776 5778 5777 5778 5778 5777 5776 5775 5774 5773 5772 5771 5770 5767 5766 5764 5763 5761 5759 5756 5754 5752 5750 5748 5745 5743 5741 5739 5737 5736 5734 5733 5731 5729 5728 5727 5725 5724 5722
5768 5769 5769 5770 5770 5772 5771 5770 5771 5770 5769 5769 5768 5767 5766 5765 5763 5762 5760 5758 5757 5755 5753 5750 5748 5746 5743 5741 5739 5737 5735 5732 5730 5728 5727 5725 5723 5722 5720 5719 5717 5716 5714 5713
5762 5763 5763 5764 5765 5764 5764 5764 5763 5763 5762 5761 5761 5760 5758 5757 5756 5754 5752 5750 5748 5747 5745 5742 5740 5737 5735 5733 5730 5728 5726 5723 5721 5719 5717 5715 5714 5712 5710 5709 5708 5706 5704 5703
5756 5756 5756 5756 5757 5757 5757 5756 5756 5755 5754 5754 5753 5752 5750 5749 5748 5746 5744 5742 5740 5738 5736 5733 5731 5728 5726 5723 5721 5719 5716 5714 5712 5709 5707 5705 5704 5702 5701 5699 5698 5696 5695 5693
5749 5749 5749 5749 5750 5749 5749 5748 5748 5747 5747 5746 5745 5744 5742 5741 5739 5738 5736 5734 5732 5729 5727 5724 5722 5719 5716 5714 5712 5709 5707 5704 5702 5700 5698 5696 5694 5692 5691 5689 5687 5686 5684 5683
5741 5741 5741 5742 5742 5741 5741 5740 5740 5739 5738 5737 5737 5736 5734 5733 5731 5729 5728 5725 5723 5721 5718 5715 5713 5710 5707 5705 5702 5700 5697 5695 5693 5690 5688 5686 5685 5683 5681 5679 5677 5675 5674 5672